timestamp,surface_pressure_avg,surface_temp_avg,battery_voltage,lat,long
2017-10-12 00:00:00+00:00,236.4631,12.29,13.05,47.84626,-54.09684
2017-10-12 00:10:00+00:00,239.0798,12.27,12.97,47.84626,-54.09684
2017-10-12 00:20:00+00:00,245.1664,12.25,13.05,47.84626,-54.09684
2017-10-12 00:30:00+00:00,248.6698,12.25,13.05,47.84626,-54.09684
2017-10-12 00:40:00+00:00,247.0548,12.23,13.05,47.84626,-54.09684
2017-10-12 00:50:00+00:00,251.5664,12.2,13.05,47.84626,-54.09684
2017-10-12 01:00:00+00:00,261.5563,12.2,12.97,47.84626,-54.09684
2017-10-12 01:10:00+00:00,268.298,12.24,12.97,47.84626,-54.09684
2017-10-12 01:20:00+00:00,270.6164,12.27,12.97,47.84626,-54.09684
2017-10-12 01:30:00+00:00,276.1731,12.27,12.97,47.84626,-54.09684
2017-10-12 01:40:00+00:00,283.4164,12.2,13.05,47.84626,-54.09684
2017-10-12 01:50:00+00:00,288.6164,12.2,13.05,47.84626,-54.09684
2017-10-12 02:00:00+00:00,290.773,12.2,12.97,47.84626,-54.09684
2017-10-12 02:10:00+00:00,296.593,12.2,12.89,47.84626,-54.09684
2017-10-12 02:20:00+00:00,303.268,12.2,12.97,47.84626,-54.09684
2017-10-12 02:30:00+00:00,308.1997,12.2,12.97,47.84626,-54.09684
2017-10-12 02:40:00+00:00,313.2797,12.2,12.97,47.84626,-54.09684
2017-10-12 02:50:00+00:00,320.1114,12.2,13.05,47.84626,-54.09684
2017-10-12 03:00:00+00:00,327.8246,12.2,12.97,47.84626,-54.09684
2017-10-12 03:10:00+00:00,331.153,12.2,12.89,47.84626,-54.09684
2017-10-12 03:20:00+00:00,332.383,12.2,12.97,47.84626,-54.09684
2017-10-12 03:30:00+00:00,336.7196,12.2,12.97,47.84626,-54.09684
2017-10-12 03:40:00+00:00,341.2746,12.2,12.97,47.84626,-54.09684
2017-10-12 03:50:00+00:00,340.1296,12.2,12.97,47.84626,-54.09684
2017-10-12 04:00:00+00:00,342.2397,12.2,12.97,47.84626,-54.09684
2017-10-12 04:10:00+00:00,345.9946,12.19,12.89,47.84626,-54.09684
2017-10-12 04:20:00+00:00,346.0647,12.19,12.97,47.84626,-54.09684
2017-10-12 04:30:00+00:00,343.2396,12.18,12.97,47.84626,-54.09684
2017-10-12 04:40:00+00:00,343.6363,12.12,12.97,47.84626,-54.09684
2017-10-12 04:50:00+00:00,342.733,12.1,12.97,47.84626,-54.09684
2017-10-12 05:00:00+00:00,339.668,12.1,12.97,47.84626,-54.09684
2017-10-12 05:10:00+00:00,338.6979,12.1,12.89,47.84626,-54.09684
2017-10-12 05:20:00+00:00,338.5163,12.1,12.97,47.84626,-54.09684
2017-10-12 05:30:00+00:00,334.2247,12.1,12.97,47.84626,-54.09684
2017-10-12 05:40:00+00:00,328.6613,12.1,12.97,47.84626,-54.09684
2017-10-12 05:50:00+00:00,327.2113,12.1,12.97,47.84626,-54.09684
2017-10-12 06:00:00+00:00,324.3614,12.1,12.89,47.84626,-54.09684
2017-10-12 06:10:00+00:00,313.5797,12.1,12.81,47.84626,-54.09684
2017-10-12 06:20:00+00:00,306.2014,12.1,12.97,47.84626,-54.09684
2017-10-12 06:30:00+00:00,304.528,12.1,12.97,47.84626,-54.09684
2017-10-12 06:40:00+00:00,297.3813,12.1,12.97,47.84626,-54.09684
2017-10-12 06:50:00+00:00,284.6198,12.09,12.97,47.84626,-54.09684
2017-10-12 07:00:00+00:00,279.4847,12.09,12.89,47.84626,-54.09684
2017-10-12 07:10:00+00:00,274.9364,12.09,12.81,47.84626,-54.09684
2017-10-12 07:20:00+00:00,263.2681,12.0,12.89,47.84626,-54.09684
2017-10-12 07:30:00+00:00,253.8047,12.0,12.89,47.84626,-54.09684
2017-10-12 07:40:00+00:00,249.1597,12.0,12.97,47.84626,-54.09684
2017-10-12 07:50:00+00:00,239.2214,12.0,12.97,47.84626,-54.09684
2017-10-12 08:00:00+00:00,227.9481,12.0,12.89,47.84626,-54.09684
2017-10-12 08:10:00+00:00,224.3947,12.0,12.81,47.84626,-54.09684
2017-10-12 08:20:00+00:00,219.0214,12.0,12.89,47.84626,-54.09684
2017-10-12 08:30:00+00:00,211.0164,11.99,12.89,47.84626,-54.09684
2017-10-12 08:40:00+00:00,209.7381,11.98,12.89,47.84626,-54.09684
2017-10-12 08:50:00+00:00,209.0364,11.97,12.89,47.84626,-54.09684
2017-10-12 09:00:00+00:00,205.5831,11.95,12.89,47.84626,-54.09684
2017-10-12 09:10:00+00:00,207.4081,11.92,12.81,47.84626,-54.09684
2017-10-12 09:20:00+00:00,211.7548,11.95,12.89,47.84626,-54.09684
2017-10-12 09:30:00+00:00,210.2047,11.96,12.89,47.84626,-54.09684
2017-10-12 09:40:00+00:00,208.2548,11.95,12.89,47.84626,-54.09684
2017-10-12 09:50:00+00:00,211.6564,11.93,12.89,47.84626,-54.09684
2017-10-12 10:00:00+00:00,214.3831,11.93,12.89,47.84626,-54.09684
2017-10-12 10:10:00+00:00,215.2481,11.9,12.97,47.84626,-54.09684
2017-10-12 10:20:00+00:00,217.6214,11.9,13.29,47.84626,-54.09684
2017-10-12 10:30:00+00:00,220.8281,11.9,13.68,47.84626,-54.09684
2017-10-12 10:40:00+00:00,222.7931,11.9,14.16,47.84626,-54.09684
2017-10-12 10:50:00+00:00,225.2081,11.9,13.76,47.84626,-54.09684
2017-10-12 11:00:00+00:00,227.9698,11.9,13.53,47.84626,-54.09684
2017-10-12 11:10:00+00:00,230.2348,11.9,13.76,47.84626,-54.09684
2017-10-12 11:20:00+00:00,233.2982,11.9,13.44,47.84626,-54.09684
2017-10-12 11:30:00+00:00,237.5847,11.9,13.6,47.84626,-54.09684
2017-10-12 11:40:00+00:00,239.4132,11.9,13.44,47.84626,-54.09684
2017-10-12 11:50:00+00:00,239.3047,11.9,13.53,47.84626,-54.09684
2017-10-12 12:00:00+00:00,240.1647,11.9,13.6,47.84626,-54.09684
2017-10-12 12:10:00+00:00,243.528,11.89,13.6,47.84626,-54.09684
2017-10-12 12:20:00+00:00,246.1014,11.89,13.44,47.84626,-54.09684
2017-10-12 12:30:00+00:00,247.3848,11.82,13.53,47.84626,-54.09684
2017-10-12 12:40:00+00:00,248.5131,11.83,13.44,47.84626,-54.09684
2017-10-12 12:50:00+00:00,250.6864,11.84,13.44,47.84626,-54.09684
2017-10-12 13:00:00+00:00,253.8797,11.85,14.0,47.84626,-54.09684
2017-10-12 13:10:00+00:00,259.0181,11.88,13.53,47.84626,-54.09684
2017-10-12 13:20:00+00:00,264.3097,11.89,13.44,47.84626,-54.09684
2017-10-12 13:30:00+00:00,269.7831,11.85,13.53,47.84626,-54.09684
2017-10-12 13:40:00+00:00,274.783,11.86,13.53,47.84626,-54.09684
2017-10-12 13:50:00+00:00,281.3898,11.8,13.68,47.84626,-54.09684
2017-10-12 14:00:00+00:00,288.7347,11.8,13.76,47.84626,-54.09684
2017-10-12 14:10:00+00:00,295.4197,11.8,13.68,47.84626,-54.09684
2017-10-12 14:20:00+00:00,299.8397,11.81,13.84,47.84626,-54.09684
2017-10-12 14:30:00+00:00,304.978,11.83,13.84,47.84626,-54.09684
2017-10-12 14:40:00+00:00,311.0163,11.8,13.6,47.84626,-54.09684
2017-10-12 14:50:00+00:00,319.0647,11.79,13.44,47.84626,-54.09684
2017-10-12 15:00:00+00:00,324.4447,11.79,13.76,47.84626,-54.09684
2017-10-12 15:10:00+00:00,326.0347,11.8,13.68,47.84626,-54.09684
2017-10-12 15:20:00+00:00,329.858,11.8,13.53,47.84626,-54.09684
2017-10-12 15:30:00+00:00,335.2712,11.8,13.44,47.84626,-54.09684
2017-10-12 15:40:00+00:00,340.588,11.8,13.53,47.84626,-54.09684
2017-10-12 15:50:00+00:00,343.5345,11.8,13.53,47.84626,-54.09684
2017-10-12 16:00:00+00:00,349.3996,11.8,13.53,47.84626,-54.09684
2017-10-12 16:10:00+00:00,352.1412,11.87,13.6,47.84626,-54.09684
2017-10-12 16:20:00+00:00,353.0796,11.9,13.44,47.84626,-54.09684
2017-10-12 16:30:00+00:00,355.0063,11.9,13.53,47.84626,-54.09684
2017-10-12 16:40:00+00:00,358.448,11.9,13.44,47.84626,-54.09684
2017-10-12 16:50:00+00:00,358.493,11.95,13.44,47.84626,-54.09684
2017-10-12 17:00:00+00:00,357.3878,11.99,13.53,47.84626,-54.09684
2017-10-12 17:10:00+00:00,357.788,12.0,14.08,47.84626,-54.09684
2017-10-12 17:20:00+00:00,357.3413,12.0,13.44,47.84626,-54.09684
2017-10-12 17:30:00+00:00,354.6946,12.0,13.84,47.84626,-54.09684
2017-10-12 17:40:00+00:00,355.3179,12.0,13.53,47.84626,-54.09684
2017-10-12 17:50:00+00:00,355.5496,12.0,13.44,47.84626,-54.09684
2017-10-12 18:00:00+00:00,353.1729,12.0,13.44,47.84626,-54.09684
2017-10-12 18:10:00+00:00,350.2213,12.0,13.44,47.84626,-54.09684
2017-10-12 18:20:00+00:00,346.8413,12.0,13.44,47.84626,-54.09684
2017-10-12 18:30:00+00:00,341.0262,12.05,13.92,47.84626,-54.09684
2017-10-12 18:40:00+00:00,335.418,12.05,13.53,47.84626,-54.09684
2017-10-12 18:50:00+00:00,330.2464,12.0,13.44,47.84626,-54.09684
2017-10-12 19:00:00+00:00,324.343,12.0,13.44,47.84626,-54.09684
2017-10-12 19:10:00+00:00,317.1063,12.0,13.29,47.84626,-54.09684
2017-10-12 19:20:00+00:00,311.3347,12.0,13.37,47.84626,-54.09684
2017-10-12 19:30:00+00:00,302.5381,12.01,13.29,47.84626,-54.09684
2017-10-12 19:40:00+00:00,294.5663,12.03,13.29,47.84626,-54.09684
2017-10-12 19:50:00+00:00,288.9446,12.04,13.29,47.84626,-54.09684
2017-10-12 20:00:00+00:00,282.6947,12.0,13.21,47.84626,-54.09684
2017-10-12 20:10:00+00:00,272.8264,12.0,13.13,47.84626,-54.09684
2017-10-12 20:20:00+00:00,265.368,12.0,13.21,47.84626,-54.09684
2017-10-12 20:30:00+00:00,259.7714,12.0,13.21,47.84626,-54.09684
2017-10-12 20:40:00+00:00,252.6031,12.0,13.21,47.84626,-54.09684
2017-10-12 20:50:00+00:00,243.7814,12.0,13.21,47.84626,-54.09684
2017-10-12 21:00:00+00:00,238.5314,12.0,13.13,47.84626,-54.09684
2017-10-12 21:10:00+00:00,233.6347,12.0,13.05,47.84626,-54.09684
2017-10-12 21:20:00+00:00,227.8814,12.0,13.05,47.84626,-54.09684
2017-10-12 21:30:00+00:00,225.0997,11.99,13.05,47.84626,-54.09684
2017-10-12 21:40:00+00:00,224.8814,11.98,13.13,47.84626,-54.09684
2017-10-12 21:50:00+00:00,226.9149,11.94,13.13,47.84626,-54.09684
2017-10-12 22:00:00+00:00,227.2464,11.91,13.05,47.84626,-54.09684
2017-10-12 22:10:00+00:00,228.4865,11.9,12.97,47.84626,-54.09684
2017-10-12 22:20:00+00:00,227.9948,11.9,13.05,47.84626,-54.09684
2017-10-12 22:30:00+00:00,226.323,11.9,13.05,47.84626,-54.09684
2017-10-12 22:40:00+00:00,226.2731,11.9,13.05,47.84626,-54.09684
2017-10-12 22:50:00+00:00,226.2864,11.9,13.05,47.84626,-54.09684
2017-10-12 23:00:00+00:00,224.7931,11.9,13.05,47.84626,-54.09684
2017-10-12 23:10:00+00:00,223.9348,11.9,12.97,47.84626,-54.09684
2017-10-12 23:20:00+00:00,225.2148,11.9,13.05,47.84626,-54.09684
2017-10-12 23:30:00+00:00,224.8098,11.9,13.05,47.84626,-54.09684
2017-10-12 23:40:00+00:00,223.3098,11.9,13.05,47.84626,-54.09684
2017-10-12 23:50:00+00:00,223.5197,11.9,13.05,47.84626,-54.09684
